Stations météo

Publicité
Macon, France (7385): Température de l'air & dewpoint: 14.04.2019 22:00:00 - 20.04.2019 22:00:00 (CEST)Macon, France (7385): Température de l'air 5cm: 14.04.2019 22:00:00 - 20.04.2019 22:00:00 (CEST)Macon, France (7385): Température de l'air -20cm & Température de l'air -100cm: 14.04.2019 22:00:00 - 20.04.2019 22:00:00 (CEST)Macon, France (7385): Vitesse du vent & gusts: 14.04.2019 22:00:00 - 20.04.2019 22:00:00 (CEST)Macon, France (7385): Direction du vent: 14.04.2019 22:00:00 - 20.04.2019 22:00:00 (CEST)Macon, France (7385): reduced air pressure: 14.04.2019 22:00:00 - 20.04.2019 22:00:00 (CEST)Macon, France (7385): visibility: 14.04.2019 22:00:00 - 20.04.2019 22:00:00 (CEST)Macon, France (7385): Ensoleillement: 14.04.2019 22:00:00 - 20.04.2019 22:00:00 (CEST)Macon, France (7385): Quantités de précipitations: 14.04.2019 22:00:00 - 20.04.2019 22:00:00 (CEST)
Date & Time tt [°C] td [°C] tt 5cm [°C] tt -20cm [°C] tt -100cm [°C] ff [km/h] ff [knt] fx [km/h] fx [knt] dd ppp [hPa] vv [km] sd [min] rr [mm]
20.04.2019 22:00:00 17,5 5,1 15,6 16,1 11,3 17 9 28 15 NW 1020,3 20 0 0,0
20.04.2019 21:00:00 18,1 5,0 16,1 16,1 11,3 16 9 23 12 WNW 1020,2 20 0 0,0
20.04.2019 20:00:00 19,0 5,8 16,5 16,1 11,3 13 7 17 9 WNW 1020,0 20 5 0,0
20.04.2019 19:00:00 21,0 6,1 19,0 15,9 11,3 8 4 15 8 NNW 1020,0 20 2 0,0
20.04.2019 18:00:00 21,5 6,2 21,8 15,6 11,3 10 5 24 13 N 1020,5 20 14 0,0
20.04.2019 17:00:00 22,5 8,6 23,7 15,3 11,3 18 10 27 14 NNE 1020,7 20 47 0,0
20.04.2019 16:00:00 22,4 9,2 25,5 14,9 11,3 13 7 24 13 ENE 1021,4 20 56 0,0
20.04.2019 15:00:00 22,9 9,3 28,2 14,6 11,3 9 5 21 12 E 1021,9 20 60 0,0
20.04.2019 14:00:00 22,4 9,9 25,6 14,3 11,3 10 5 19 10 E 1022,6 3,1 60 0,0
20.04.2019 13:00:00 21,7 10,8 27,7 14,1 11,3 5 3 14 8 NNW 1023,2 20 60 0,0
20.04.2019 12:00:00 19,8 10,2 26,3 14,0 11,3 7 4 16 9 NE 1024,0 18 60 0,0
20.04.2019 11:00:00 18,4 9,5 21,8 14,0 11,3 3 2 11 6 SSW 1024,6 20 60 0,0
20.04.2019 10:00:00 15,0 8,9 16,3 14,1 11,3 4 2 10 6 ENE 1025,4 20 35 0,0
20.04.2019 09:00:00 14,8 8,3 11,1 14,2 11,2 0 0 6 3 N 1025,3 19 29 0,0
20.04.2019 08:00:00 10,9 7,2 7,0 14,3 11,2 3 1 5 3 W 1025,6 20 31 0,0
20.04.2019 07:00:00 9,6 6,7 7,1 14,5 11,2 0 0 6 3 N 1025,4 20 0 0,0
20.04.2019 06:00:00 10,1 6,6 6,3 14,6 11,2 2 1 9 5 WNW 1025,3 20 0 0,0
20.04.2019 05:00:00 10,4 7,5 6,9 14,8 11,2 3 2 9 5 NNW 1025,3 20 0 0,0
20.04.2019 04:00:00 11,1 7,4 7,5 14,9 11,2 3 2 15 8 W 1025,1 20 0 0,0
20.04.2019 03:00:00 12,7 7,2 8,1 15,0 11,2 3 1 11 6 NW 1024,8 20 0 0,0
20.04.2019 02:00:00 14,5 7,3 10,6 15,1 11,2 0 0 11 6 N 1025,0 20 0 0,0
20.04.2019 01:00:00 15,6 7,4 13,0 15,2 11,2 10 5 16 8 NW 1025,0 20 0 0,0
20.04.2019 00:00:00 15,7 7,2 12,9 15,3 11,1 8 5 15 8 NW 1025,0 20 0 0,0
19.04.2019 23:00:00 15,5 7,3 13,0 15,4 11,1 9 5 13 7 WNW 1025,1 20 0 0,0
19.04.2019 22:00:00 16,9 7,0 12,5 15,4 11,2 7 4 12 6 WNW 1024,9 20 0 0,0
19.04.2019 21:00:00 17,7 7,4 11,4 15,4 11,1 4 2 15 8 W 1024,6 20 5 0,0
19.04.2019 20:00:00 20,7 7,3 18,0 15,2 11,1 10 6 19 10 NE 1023,9 20 56 0,0
19.04.2019 19:00:00 22,6 6,4 24,6 14,9 11,1 8 5 21 12 NE 1023,5 20 60 0,0
19.04.2019 18:00:00 23,7 8,1 27,1 14,6 11,1 7 4 15 8 E 1023,4 20 60 0,0
19.04.2019 17:00:00 23,8 7,8 30,4 14,2 11,1 6 3 12 7 ESE 1023,5 19 60 0,0
19.04.2019 16:00:00 23,3 7,8 29,4 13,8 11,1 8 4 16 9 SE 1023,8 12 60 0,0
19.04.2019 15:00:00 23,1 7,2 28,4 13,5 11,1 7 4 23 12 ENE 1024,4 20 60 0,0
19.04.2019 14:00:00 22,0 7,0 26,0 13,2 11,1 8 4 16 9 SE 1024,8 19 60 0,0
19.04.2019 13:00:00 20,5 9,1 26,2 13,0 11,1 10 5 19 10 ESE 1025,3 19 60 0,0
19.04.2019 12:00:00 18,5 7,3 23,4 12,9 11,1 11 6 22 12 SSE 1025,8 19 60 0,0
19.04.2019 11:00:00 17,1 7,4 17,9 12,9 11,0 11 6 21 11 S 1025,9 19 24 0,0
19.04.2019 10:00:00 14,2 6,5 13,4 13,0 11,0 6 3 10 5 S 1026,1 20 0 0,0
19.04.2019 09:00:00 11,7 7,6 9,5 13,1 11,0 0 0 6 3 N 1025,8 20 0 0,0
19.04.2019 08:00:00 9,1 6,4 4,8 13,3 11,1 4 2 7 4 WNW 1025,5 20 0 0,0
19.04.2019 07:00:00 7,6 4,7 3,4 13,4 11,1 3 2 6 4 WNW 1024,8 20 0 0,0
19.04.2019 06:00:00 8,3 4,7 3,0 13,6 11,0 3 1 7 4 W 1023,9 20 0 0,0
19.04.2019 05:00:00 8,7 4,7 3,7 13,7 11,0 3 2 9 5 S 1023,5 20 0 0,0
19.04.2019 04:00:00 9,7 5,1 4,8 13,9 11,0 0 0 6 4 N 1023,0 20 0 0,0
19.04.2019 03:00:00 10,8 5,5 5,1 14,1 11,0 5 3 8 4 SSE 1022,7 20 0 0,0
19.04.2019 02:00:00 10,0 6,3 5,3 14,2 11,0 5 3 8 5 E 1022,7 15 0 0,0
19.04.2019 01:00:00 11,0 6,7 5,3 14,4 11,0 2 1 7 4 SSW 1022,2 20 0 0,0
19.04.2019 00:00:00 12,3 7,2 6,6 14,5 11,0 4 2 11 6 SSW 1021,9 20 0 0,0
18.04.2019 23:00:00 13,8 7,1 7,8 14,5 11,0 6 3 13 7 E 1021,1 20 0 0,0
18.04.2019 22:00:00 15,6 7,4 9,0 14,5 11,0 0 0 11 6 N 1020,4 20 0 0,0
18.04.2019 21:00:00 16,4 7,6 10,3 14,5 11,0 6 3 10 5 ENE 1019,7 20 0 0,0
18.04.2019 20:00:00 19,0 8,0 15,7 14,4 11,0 6 3 16 9 ESE 1018,9 20 0 0,0
18.04.2019 19:00:00 20,5 7,5 19,9 14,2 11,0 12 6 23 13 SE 1018,2 20 24 0,0
18.04.2019 18:00:00 21,5 7,7 22,8 13,8 11,0 11 6 31 17 SSE 1017,8 20 54 0,0
18.04.2019 17:00:00 22,0 6,6 24,1 13,5 11,0 20 11 41 22 SSE 1017,7 20 60 0,0
18.04.2019 16:00:00 21,9 7,7 26,0 13,2 11,0 20 11 36 20 SSE 1017,9 20 60 0,0
18.04.2019 15:00:00 21,8 7,2 26,1 12,9 10,9 22 12 41 22 SSE 1018,0 20 60 0,0
18.04.2019 14:00:00 21,5 7,3 24,3 12,7 11,0 20 11 43 23 SSE 1018,3 18 60 0,0
18.04.2019 13:00:00 20,0 5,6 22,3 12,5 10,9 27 15 43 23 SSE 1018,8 20 51 0,0
18.04.2019 12:00:00 18,5 7,6 21,1 12,4 10,9 17 9 32 17 S 1019,4 20 60 0,0
18.04.2019 11:00:00 15,9 7,1 18,4 12,4 10,9 16 9 28 15 S 1020,0 20 60 0,0
18.04.2019 10:00:00 14,2 6,8 16,2 12,5 10,9 19 10 28 15 S 1020,2 20 60 0,0
18.04.2019 09:00:00 12,6 6,8 10,1 12,6 10,9 15 8 24 13 S 1020,2 20 60 0,0
18.04.2019 08:00:00 10,0 6,3 5,1 12,7 10,9 6 3 9 5 SSE 1020,3 20 48 0,0
18.04.2019 07:00:00 8,4 5,0 5,1 12,9 10,9 4 2 14 8 ESE 1020,0 20 0 0,0
18.04.2019 06:00:00 9,9 5,3 6,2 13,0 10,9 4 2 13 7 S 1019,3 20 0 0,0
18.04.2019 05:00:00 10,1 5,3 5,6 13,1 10,9 6 4 10 5 S 1019,6 20 0 0,0
18.04.2019 04:00:00 10,4 6,0 6,8 13,3 10,9 5 3 12 7 SSE 1019,5 20 0 0,0
18.04.2019 03:00:00 10,6 6,2 7,2 13,3 10,9 6 3 13 7 SSE 1019,6 20 0 0,0
18.04.2019 02:00:00 11,3 6,2 7,4 13,5 10,9 4 2 7 4 SE 1019,6 20 0 0,0
18.04.2019 01:00:00 10,7 6,8 7,1 13,6 10,9 0 0 8 4 N 1019,4 20 0 0,0
18.04.2019 00:00:00 11,8 6,9 8,4 13,7 10,9 3 2 11 6 WNW 1018,8 20 0 0,0
17.04.2019 23:00:00 11,9 7,0 8,0 13,8 10,9 8 4 9 5 NNE 1018,6 20 0 0,0
17.04.2019 22:00:00 13,5 6,1 8,4 13,8 10,9 5 3 10 6 NNE 1018,2 20 0 0,0
17.04.2019 21:00:00 15,1 6,1 10,6 13,7 10,9 8 4 14 7 NE 1017,3 20 6 0,0
17.04.2019 20:00:00 18,2 5,4 15,6 13,6 10,9 9 5 16 9 ENE 1016,6 20 60 0,0
17.04.2019 19:00:00 19,7 5,7 18,9 13,3 10,9 11 6 24 13 E 1016,3 20 41 0,0
17.04.2019 18:00:00 20,2 5,4 22,6 12,9 10,9 16 8 29 16 ESE 1016,3 20 60 0,0
17.04.2019 17:00:00 19,9 7,6 23,1 12,6 10,9 11 6 28 15 SSE 1017,0 20 60 0,0
17.04.2019 16:00:00 19,3 8,0 24,3 12,2 10,9 15 8 33 18 SE 1017,5 20 60 0,0
17.04.2019 15:00:00 18,6 8,3 21,7 11,8 10,9 13 7 27 15 ESE 1018,2 19 50 0,0
17.04.2019 14:00:00 18,0 8,8 22,0 11,5 10,9 9 5 19 10 E 1018,7 20 52 0,0
17.04.2019 13:00:00 16,5 9,7 19,1 11,3 10,9 11 6 21 11 S 1019,5 19 37 0,0
17.04.2019 12:00:00 15,4 10,2 20,3 11,1 10,9 8 4 16 9 SE 1020,0 15 57 0,0
17.04.2019 11:00:00 13,0 8,9 18,3 11,1 10,9 9 5 14 8 SE 1020,6 17 60 0,0
17.04.2019 10:00:00 11,0 8,4 13,1 11,2 10,9 5 3 9 5 SSE 1021,0 18 60 0,0
17.04.2019 09:00:00 8,2 6,7 7,4 11,3 10,9 3 2 8 4 SE 1021,4 12 60 0,0
17.04.2019 08:00:00 6,6 5,9 4,1 11,5 10,9 4 2 10 5 SE 1021,6 9 46 0,0
17.04.2019 07:00:00 5,2 4,9 3,6 11,6 10,9 7 4 11 6 WNW 1021,3 16 0 0,0
17.04.2019 06:00:00 5,4 5,1 3,7 11,7 10,9 6 3 11 6 W 1021,1 11 0 0,0
17.04.2019 05:00:00 5,8 5,2 3,6 11,9 10,9 6 3 9 5 W 1020,9 12 0 0,0
17.04.2019 04:00:00 6,7 6,1 4,5 12,0 10,9 7 4 10 6 W 1021,2 20 0 0,0
17.04.2019 03:00:00 7,3 6,6 5,1 12,1 10,9 7 4 10 5 W 1021,2 16 0 0,0
17.04.2019 02:00:00 8,2 7,8 4,4 12,2 10,9 4 2 11 6 WNW 1021,3 14 0 0,0
17.04.2019 01:00:00 9,2 8,4 4,9 12,2 10,9 4 2 7 4 W 1021,4 10 0 0,0
17.04.2019 00:00:00 10,5 9,4 9,2 12,3 10,9 4 2 8 4 W 1021,2 15 0 0,0
16.04.2019 23:00:00 10,8 9,1 9,7 12,3 10,9 4 2 6 4 S 1020,8 20 0 0,0
16.04.2019 22:00:00 11,1 9,7 9,9 12,3 10,9 5 3 8 4 SE 1020,7 20 0 0,2
16.04.2019 21:00:00 11,7 9,3 10,3 12,2 10,9 8 4 19 10 W 1020,5 8 0 0,6
16.04.2019 20:00:00 13,0 7,9 12,4 12,1 10,9 13 7 27 14 SSE 1019,4 20 0 0,0
16.04.2019 19:00:00 13,7 8,3 14,1 12,0 10,9 16 9 29 15 SSE 1018,8 20 50 0,0
16.04.2019 18:00:00 15,0 9,1 15,1 11,9 10,9 19 10 32 17 SSE 1018,5 20 23 0,0
16.04.2019 17:00:00 13,5 9,0 15,0 11,9 10,9 18 10 28 15 SSE 1018,8 20 0 0,0
16.04.2019 16:00:00 12,8 9,2 12,4 11,8 10,9 18 10 30 16 S 1018,9 20 0 0,0
16.04.2019 15:00:00 12,0 8,8 11,8 11,7 10,9 17 9 31 17 SSE 1019,1 20 0 0,0
16.04.2019 14:00:00 11,5 8,4 11,0 11,7 10,9 21 11 32 18 SSE 1019,1 20 0 0,6
16.04.2019 13:00:00 10,9 8,1 11,0 11,6 10,8 17 9 30 16 S 1019,4 11 0 0,4
16.04.2019 12:00:00 10,7 7,6 10,6 11,6 10,9 17 9 36 19 S 1019,2 20 0 0,0
16.04.2019 11:00:00 10,6 7,8 10,3 11,6 10,9 20 11 33 18 S 1019,0 19 0 0,2
16.04.2019 10:00:00 10,1 8,0 9,5 11,6 10,9 16 9 26 14 SSE 1018,8 20 0 0,4
16.04.2019 09:00:00 10,5 6,4 9,9 11,7 10,9 17 9 32 17 SSE 1018,5 20 0 0,0
16.04.2019 08:00:00 11,4 4,4 9,0 11,8 10,9 22 12 34 19 S 1017,8 20 0 0,0
16.04.2019 07:00:00 10,7 4,4 8,4 11,8 10,9 6 3 10 6 S 1017,0 20 0 0,0
16.04.2019 06:00:00 11,0 4,2 9,3 11,9 10,9 4 2 9 5 S 1016,8 20 0 0,0
16.04.2019 05:00:00 11,0 4,4 9,7 12,0 10,9 7 4 13 7 S 1016,7 20 0 0,0
16.04.2019 04:00:00 10,9 4,4 9,6 12,1 10,9 8 4 16 9 SSE 1016,5 20 0 0,0
16.04.2019 03:00:00 11,0 4,2 7,3 12,2 10,9 10 6 16 9 SSE 1016,2 20 0 0,0
16.04.2019 02:00:00 11,5 4,0 10,0 12,3 10,9 8 4 28 15 SSE 1016,3 20 0 0,0
16.04.2019 01:00:00 11,5 4,5 10,4 12,4 10,9 20 11 35 19 SSE 1015,4 20 0 0,0
16.04.2019 00:00:00 12,0 4,9 10,7 12,5 10,9 20 11 33 18 SSE 1015,0 20 0 0,0
15.04.2019 23:00:00 12,3 4,3 10,8 12,5 10,9 18 10 35 19 SSE 1014,9 20 0 0,0
15.04.2019 22:00:00 13,4 4,0 11,0 12,5 10,9 21 12 34 18 SSE 1014,6 20 0 0,0
15.04.2019 21:00:00 13,6 3,1 11,7 12,5 10,9 13 7 30 16 SE 1014,3 20 0 0,0
15.04.2019 20:00:00 14,8 2,3 12,9 12,4 10,9 17 9 32 17 SE 1013,7 20 0 0,0
15.04.2019 19:00:00 16,2 1,9 16,0 12,2 10,9 19 10 35 19 SE 1013,7 20 33 0,0
15.04.2019 18:00:00 16,8 2,0 19,1 11,8 10,9 22 12 42 23 SSE 1013,8 20 60 0,0
15.04.2019 17:00:00 17,1 1,9 20,7 11,4 10,9 19 11 34 18 SE 1014,5 20 60 0,0
15.04.2019 16:00:00 16,0 3,7 20,7 11,0 10,9 13 7 29 15 SSE 1015,5 20 60 0,0
15.04.2019 15:00:00 14,3 3,4 18,8 10,7 10,9 14 8 32 17 ESE 1017,0 18 60 0,0
15.04.2019 14:00:00 12,6 4,0 17,7 10,4 10,9 9 5 18 10 ESE 1018,0 14 60 0,0
15.04.2019 13:00:00 11,3 2,1 17,3 10,1 10,9 7 4 18 10 ESE 1019,2 12 60 0,0
15.04.2019 12:00:00 9,5 2,1 16,2 10,0 10,9 8 4 14 8 SE 1020,3 12 60 0,0
15.04.2019 11:00:00 7,8 2,0 13,2 10,0 10,9 4 2 16 8 NE 1020,9 8 60 0,0
15.04.2019 10:00:00 6,7 1,6 8,7 10,1 10,9 0 0 13 7 N 1021,1 7 60 0,0
15.04.2019 09:00:00 4,3 1,5 2,0 10,3 10,9 8 4 13 7 N 1021,5 4,5 44 0,0
15.04.2019 08:00:00 2,3 0,2 -0,4 10,4 10,9 6 3 12 6 NW 1021,8 4,8 21 0,0
15.04.2019 07:00:00 1,2 -0,6 -0,8 10,6 10,9 8 5 12 7 NW 1021,5 4,7 0 0,0
15.04.2019 06:00:00 1,4 -0,5 -0,2 10,8 10,9 8 5 15 8 NW 1021,5 6 0 0,0
15.04.2019 05:00:00 2,0 -0,4 -0,2 11,0 10,9 9 5 15 8 NW 1021,6 6 0 0,0
15.04.2019 04:00:00 2,2 -0,6 0,2 11,1 10,9 7 4 15 8 NW 1021,8 8 0 0,0
15.04.2019 03:00:00 2,3 -1,0 0,7 11,3 10,9 9 5 15 8 WNW 1022,1 10 0 0,0
15.04.2019 02:00:00 3,0 -1,4 1,6 11,5 10,9 14 7 21 12 WNW 1022,1 14 0 0,0
15.04.2019 01:00:00 4,2 -1,4 2,7 11,6 10,9 13 7 24 13 NW 1022,3 16 0 0,0
15.04.2019 00:00:00 4,8 -1,2 2,7 11,8 10,9 13 7 20 11 NW 1022,1 17 0 0,0
14.04.2019 23:00:00 5,6 -1,6 3,6 11,9 10,9 9 5 23 12 NNW 1021,7 20 0 0,0
14.04.2019 22:00:00 6,0 -3,1 3,6 12,0 10,9 12 6 25 14 NNW 1021,5 20 0 0,0

tt = Température de l'air
td = dewpoint
tt 5cm = Température de l'air 5cm
tt -20cm = Température de l'air -20cm
tt -100cm = Température de l'air -100cm
ff = Vitesse du vent
fx = gusts
dd = Direction du vent
ppp = reduced air pressure
vv = visibility
sd = Ensoleillement
rr = Quantités de précipitations

stations d'obs. à proximité